Time,TemperatureF,DewpointF,PressureIn,WindDirection,WindDirectionDegrees,WindSpeedMPH,WindSpeedGustMPH,Humidity,HourlyPrecipIn,Conditions,Clouds,dailyrainin,SolarRadiationWatts/m^2,SoftwareType,DateUTC
2013-11-22 00:00:00,74.3,72.5,29.86,ESE,112,0.0,2.0,94,0.03,,,-99.99,0,WeatherLink 5.4,2013-11-22 04:00:00,
2013-11-22 00:10:00,73.9,72.1,29.86,North,-999,0.0,0.0,94,0.03,,,-99.99,0,WeatherLink 5.4,2013-11-22 04:10:00,
2013-11-22 00:12:00,73.9,72.1,29.86,North,-999,0.0,0.0,94,0.03,,,-99.99,0,WeatherLink 5.4,2013-11-22 04:12:00,
2013-11-22 00:20:00,73.9,72.1,29.86,North,-999,0.0,0.0,94,0.01,,,-99.99,0,WeatherLink 5.4,2013-11-22 04:20:00,
2013-11-22 00:27:00,73.9,72.1,29.86,North,-999,0.0,0.0,94,0.01,,,-99.99,0,WeatherLink 5.4,2013-11-22 04:27:00,
2013-11-22 00:30:00,73.7,71.9,29.85,North,-999,0.0,0.0,94,0.01,,,-99.99,0,WeatherLink 5.4,2013-11-22 04:30:00,
2013-11-22 00:40:00,73.7,71.9,29.85,North,-999,0.0,0.0,94,0.00,,,-99.99,0,WeatherLink 5.4,2013-11-22 04:40:00,
2013-11-22 00:42:00,73.7,71.9,29.85,North,-999,0.0,0.0,94,0.00,,,-99.99,0,WeatherLink 5.4,2013-11-22 04:42:00,
2013-11-22 00:50:00,73.8,72.3,29.85,North,-999,0.0,0.0,95,0.00,,,-99.99,0,WeatherLink 5.4,2013-11-22 04:50:00,
2013-11-22 00:57:00,73.8,72.3,29.85,North,-999,0.0,0.0,95,0.00,,,-99.99,0,WeatherLink 5.4,2013-11-22 04:57:00,
2013-11-22 01:00:00,73.9,72.4,29.86,North,-999,0.0,0.0,95,0.00,,,-99.99,0,WeatherLink 5.4,2013-11-22 05:00:00,
2013-11-22 01:10:00,73.9,72.4,29.86,North,-999,0.0,0.0,95,0.00,,,-99.99,0,WeatherLink 5.4,2013-11-22 05:10:00,
2013-11-22 01:13:00,73.9,72.4,29.86,North,-999,0.0,0.0,95,0.00,,,-99.99,0,WeatherLink 5.4,2013-11-22 05:13:00,
2013-11-22 01:20:00,73.8,72.3,29.85,North,-999,0.0,0.0,95,0.00,,,-99.99,0,WeatherLink 5.4,2013-11-22 05:20:00,
2013-11-22 01:28:00,73.8,72.3,29.85,North,-999,0.0,0.0,95,0.00,,,-99.99,0,WeatherLink 5.4,2013-11-22 05:28:00,
2013-11-22 01:30:00,73.8,72.3,29.85,North,-999,0.0,0.0,95,0.00,,,-99.99,0,WeatherLink 5.4,2013-11-22 05:30:00,
2013-11-22 01:40:00,73.9,72.4,29.85,North,-999,0.0,0.0,95,0.00,,,-99.99,0,WeatherLink 5.4,2013-11-22 05:40:00,
2013-11-22 01:43:00,73.9,72.4,29.85,North,-999,0.0,0.0,95,0.00,,,-99.99,0,WeatherLink 5.4,2013-11-22 05:43:00,
2013-11-22 01:50:00,73.9,72.4,29.84,North,-999,0.0,0.0,95,0.00,,,-99.99,0,WeatherLink 5.4,2013-11-22 05:50:00,
2013-11-22 01:58:00,73.9,72.4,29.84,North,-999,0.0,0.0,95,0.00,,,-99.99,0,WeatherLink 5.4,2013-11-22 05:58:00,
2013-11-22 02:00:00,73.9,72.4,29.84,North,-999,0.0,0.0,95,0.01,,,-99.99,0,WeatherLink 5.4,2013-11-22 06:00:00,
2013-11-22 02:10:00,73.9,72.4,29.84,North,-999,0.0,0.0,95,0.01,,,-99.99,0,WeatherLink 5.4,2013-11-22 06:10:00,
2013-11-22 02:13:00,73.9,72.4,29.84,North,-999,0.0,0.0,95,0.01,,,-99.99,0,WeatherLink 5.4,2013-11-22 06:13:00,
2013-11-22 02:20:00,73.8,72.3,29.83,North,-999,0.0,0.0,95,0.01,,,-99.99,0,WeatherLink 5.4,2013-11-22 06:20:00,
2013-11-22 02:28:00,73.8,72.3,29.83,North,-999,0.0,0.0,95,0.01,,,-99.99,0,WeatherLink 5.4,2013-11-22 06:28:00,
2013-11-22 02:30:00,73.8,72.3,29.82,North,-999,0.0,0.0,95,0.01,,,-99.99,0,WeatherLink 5.4,2013-11-22 06:30:00,
2013-11-22 02:40:00,73.7,72.2,29.82,North,-999,0.0,0.0,95,0.01,,,-99.99,0,WeatherLink 5.4,2013-11-22 06:40:00,
2013-11-22 02:43:00,73.7,72.2,29.82,North,-999,0.0,0.0,95,0.01,,,-99.99,0,WeatherLink 5.4,2013-11-22 06:43:00,
2013-11-22 02:50:00,73.8,72.3,29.82,North,-999,0.0,0.0,95,0.02,,,-99.99,0,WeatherLink 5.4,2013-11-22 06:50:00,
2013-11-22 02:57:00,73.8,72.3,29.82,North,-999,0.0,0.0,95,0.02,,,-99.99,0,WeatherLink 5.4,2013-11-22 06:57:00,
2013-11-22 03:00:00,73.9,72.4,29.82,North,-999,0.0,0.0,95,0.02,,,-99.99,0,WeatherLink 5.4,2013-11-22 07:00:00,
2013-11-22 03:10:00,73.8,72.3,29.82,North,-999,0.0,0.0,95,0.02,,,-99.99,0,WeatherLink 5.4,2013-11-22 07:10:00,
2013-11-22 03:12:00,73.8,72.3,29.82,North,-999,0.0,0.0,95,0.02,,,-99.99,0,WeatherLink 5.4,2013-11-22 07:12:00,
2013-11-22 03:20:00,73.9,72.4,29.82,North,-999,0.0,0.0,95,0.12,,,-99.99,0,WeatherLink 5.4,2013-11-22 07:20:00,
2013-11-22 03:27:00,73.9,72.4,29.82,North,-999,0.0,0.0,95,0.12,,,-99.99,0,WeatherLink 5.4,2013-11-22 07:27:00,
2013-11-22 03:30:00,73.9,72.4,29.81,North,-999,0.0,0.0,95,0.12,,,-99.99,0,WeatherLink 5.4,2013-11-22 07:30:00,
2013-11-22 03:40:00,73.8,72.3,29.81,North,-999,0.0,0.0,95,0.12,,,-99.99,0,WeatherLink 5.4,2013-11-22 07:40:00,
2013-11-22 03:42:00,73.8,72.3,29.81,North,-999,0.0,0.0,95,0.12,,,-99.99,0,WeatherLink 5.4,2013-11-22 07:42:00,
2013-11-22 03:50:00,73.6,72.1,29.81,North,-999,0.0,0.0,95,0.13,,,-99.99,0,WeatherLink 5.4,2013-11-22 07:50:00,
2013-11-22 03:57:00,73.6,72.1,29.81,North,-999,0.0,0.0,95,0.13,,,-99.99,0,WeatherLink 5.4,2013-11-22 07:57:00,
2013-11-22 04:00:00,73.5,72.0,29.81,North,-999,0.0,0.0,95,0.12,,,-99.99,0,WeatherLink 5.4,2013-11-22 08:00:00,
2013-11-22 04:10:00,73.5,72.0,29.81,North,-999,0.0,0.0,95,0.12,,,-99.99,0,WeatherLink 5.4,2013-11-22 08:10:00,
2013-11-22 04:13:00,73.5,72.0,29.81,North,-999,0.0,0.0,95,0.12,,,-99.99,0,WeatherLink 5.4,2013-11-22 08:13:00,
2013-11-22 04:20:00,73.5,72.0,29.81,North,-999,0.0,0.0,95,0.02,,,-99.99,0,WeatherLink 5.4,2013-11-22 08:20:00,
2013-11-22 04:28:00,73.5,72.0,29.81,North,-999,0.0,0.0,95,0.02,,,-99.99,0,WeatherLink 5.4,2013-11-22 08:28:00,
2013-11-22 04:30:00,73.4,71.9,29.81,North,-999,0.0,0.0,95,0.02,,,-99.99,0,WeatherLink 5.4,2013-11-22 08:30:00,
2013-11-22 04:40:00,73.3,71.8,29.81,North,-999,0.0,0.0,95,0.02,,,-99.99,0,WeatherLink 5.4,2013-11-22 08:40:00,
2013-11-22 04:43:00,73.3,71.8,29.81,North,-999,0.0,0.0,95,0.02,,,-99.99,0,WeatherLink 5.4,2013-11-22 08:43:00,
2013-11-22 04:50:00,73.3,71.8,29.81,North,-999,0.0,0.0,95,0.02,,,-99.99,0,WeatherLink 5.4,2013-11-22 08:50:00,
2013-11-22 04:58:00,73.3,71.8,29.81,North,-999,0.0,0.0,95,0.02,,,-99.99,0,WeatherLink 5.4,2013-11-22 08:58:00,
2013-11-22 05:00:00,73.2,71.7,29.81,North,-999,0.0,0.0,95,0.04,,,-99.99,0,WeatherLink 5.4,2013-11-22 09:00:00,
2013-11-22 05:10:00,73.1,71.6,29.81,SE,135,0.0,3.0,95,0.04,,,-99.99,0,WeatherLink 5.4,2013-11-22 09:10:00,
2013-11-22 05:13:00,73.1,71.6,29.81,SE,135,0.0,3.0,95,0.04,,,-99.99,0,WeatherLink 5.4,2013-11-22 09:13:00,
2013-11-22 05:20:00,73.0,71.5,29.81,North,-999,0.0,0.0,95,0.04,,,-99.99,0,WeatherLink 5.4,2013-11-22 09:20:00,
2013-11-22 05:28:00,73.0,71.5,29.81,North,-999,0.0,0.0,95,0.04,,,-99.99,0,WeatherLink 5.4,2013-11-22 09:28:00,
2013-11-22 05:30:00,73.0,71.5,29.82,North,-999,0.0,0.0,95,0.05,,,-99.99,0,WeatherLink 5.4,2013-11-22 09:30:00,
2013-11-22 05:40:00,73.0,71.5,29.82,North,-999,0.0,0.0,95,0.05,,,-99.99,0,WeatherLink 5.4,2013-11-22 09:40:00,
2013-11-22 05:43:00,73.0,71.5,29.82,North,-999,0.0,0.0,95,0.05,,,-99.99,0,WeatherLink 5.4,2013-11-22 09:43:00,
2013-11-22 05:50:00,73.1,71.6,29.81,North,-999,0.0,0.0,95,0.03,,,-99.99,0,WeatherLink 5.4,2013-11-22 09:50:00,
2013-11-22 05:58:00,73.1,71.6,29.81,North,-999,0.0,0.0,95,0.03,,,-99.99,0,WeatherLink 5.4,2013-11-22 09:58:00,
2013-11-22 06:00:00,73.0,71.5,29.82,North,-999,0.0,0.0,95,0.01,,,-99.99,0,WeatherLink 5.4,2013-11-22 10:00:00,
2013-11-22 06:10:00,73.0,71.5,29.82,North,-999,0.0,0.0,95,0.01,,,-99.99,0,WeatherLink 5.4,2013-11-22 10:10:00,
2013-11-22 06:13:00,73.0,71.5,29.82,North,-999,0.0,0.0,95,0.01,,,-99.99,0,WeatherLink 5.4,2013-11-22 10:13:00,
2013-11-22 06:20:00,73.0,71.5,29.82,North,-999,0.0,0.0,95,0.01,,,-99.99,0,WeatherLink 5.4,2013-11-22 10:20:00,
2013-11-22 06:27:00,73.0,71.5,29.82,North,-999,0.0,0.0,95,0.01,,,-99.99,0,WeatherLink 5.4,2013-11-22 10:27:00,
2013-11-22 06:30:00,73.0,71.5,29.83,North,-999,0.0,0.0,95,0.00,,,-99.99,0,WeatherLink 5.4,2013-11-22 10:30:00,
2013-11-22 06:40:00,73.2,71.7,29.83,North,-999,0.0,0.0,95,0.00,,,-99.99,0,WeatherLink 5.4,2013-11-22 10:40:00,
2013-11-22 06:42:00,73.2,71.7,29.83,North,-999,0.0,0.0,95,0.00,,,-99.99,0,WeatherLink 5.4,2013-11-22 10:42:00,
2013-11-22 06:50:00,73.2,71.7,29.83,North,-999,0.0,0.0,95,0.00,,,-99.99,0,WeatherLink 5.4,2013-11-22 10:50:00,
2013-11-22 06:57:00,73.2,71.7,29.83,North,-999,0.0,0.0,95,0.00,,,-99.99,0,WeatherLink 5.4,2013-11-22 10:57:00,
2013-11-22 07:00:00,73.2,71.7,29.84,North,-999,0.0,7.0,95,0.00,,,-99.99,10,WeatherLink 5.4,2013-11-22 11:00:00,
2013-11-22 07:10:00,73.3,71.8,29.84,North,-999,0.0,0.0,95,0.00,,,-99.99,11,WeatherLink 5.4,2013-11-22 11:10:00,
2013-11-22 07:13:00,73.3,71.8,29.84,North,-999,0.0,0.0,95,0.00,,,-99.99,11,WeatherLink 5.4,2013-11-22 11:13:00,
2013-11-22 07:20:00,73.3,71.8,29.85,North,-999,0.0,0.0,95,0.00,,,-99.99,16,WeatherLink 5.4,2013-11-22 11:20:00,
2013-11-22 07:28:00,73.3,71.8,29.85,North,-999,0.0,0.0,95,0.00,,,-99.99,16,WeatherLink 5.4,2013-11-22 11:28:00,
2013-11-22 07:30:00,73.7,72.2,29.85,North,-999,0.0,0.0,95,0.00,,,-99.99,56,WeatherLink 5.4,2013-11-22 11:30:00,
2013-11-22 07:40:00,73.7,72.2,29.85,North,-999,0.0,0.0,95,0.00,,,-99.99,56,WeatherLink 5.4,2013-11-22 11:40:00,
2013-11-22 07:43:00,73.7,72.2,29.85,North,-999,0.0,0.0,95,0.00,,,-99.99,56,WeatherLink 5.4,2013-11-22 11:43:00,
2013-11-22 07:50:00,73.9,72.4,29.85,North,-999,0.0,0.0,95,0.00,,,-99.99,83,WeatherLink 5.4,2013-11-22 11:50:00,
2013-11-22 07:58:00,73.9,72.4,29.85,North,-999,0.0,0.0,95,0.00,,,-99.99,83,WeatherLink 5.4,2013-11-22 11:58:00,
2013-11-22 08:00:00,74.0,72.5,29.86,North,-999,0.0,0.0,95,0.00,,,-99.99,71,WeatherLink 5.4,2013-11-22 12:00:00,
2013-11-22 08:10:00,74.1,72.6,29.86,North,-999,0.0,0.0,95,0.00,,,-99.99,69,WeatherLink 5.4,2013-11-22 12:10:00,
2013-11-22 08:13:00,74.1,72.6,29.86,North,-999,0.0,0.0,95,0.00,,,-99.99,69,WeatherLink 5.4,2013-11-22 12:13:00,
2013-11-22 08:20:00,74.3,72.8,29.86,North,-999,0.0,0.0,95,0.00,,,-99.99,69,WeatherLink 5.4,2013-11-22 12:20:00,
2013-11-22 08:28:00,74.3,72.8,29.86,North,-999,0.0,0.0,95,0.00,,,-99.99,69,WeatherLink 5.4,2013-11-22 12:28:00,
2013-11-22 08:30:00,74.4,72.9,29.86,North,-999,0.0,0.0,95,0.00,,,-99.99,69,WeatherLink 5.4,2013-11-22 12:30:00,
2013-11-22 08:40:00,74.5,73.0,29.86,North,-999,0.0,0.0,95,0.00,,,-99.99,95,WeatherLink 5.4,2013-11-22 12:40:00,
2013-11-22 08:43:00,74.5,73.0,29.86,North,-999,0.0,0.0,95,0.00,,,-99.99,95,WeatherLink 5.4,2013-11-22 12:43:00,
2013-11-22 09:58:00,-999.9,-99.9,3.33,North,0,19.0,242.0,100,0.04,,,-99.99,,WeatherLink 5.4,2013-11-22 13:58:00,
2013-11-22 10:13:00,-999.9,-99.9,3.33,North,0,19.0,242.0,100,0.04,,,-99.99,,WeatherLink 5.4,2013-11-22 14:13:00,
2013-11-22 10:29:00,-999.9,-99.9,3.33,North,0,19.0,242.0,100,0.04,,,-99.99,,WeatherLink 5.4,2013-11-22 14:29:00,
2013-11-22 10:43:00,-999.9,-99.9,3.33,North,0,19.0,242.0,100,0.04,,,-99.99,,WeatherLink 5.4,2013-11-22 14:43:00,
2013-11-22 10:58:00,-999.9,-99.9,3.33,North,0,19.0,242.0,100,0.04,,,-99.99,,WeatherLink 5.4,2013-11-22 14:58:00,
2013-11-22 11:13:00,-999.9,-99.9,3.33,North,0,19.0,242.0,100,0.04,,,-99.99,,WeatherLink 5.4,2013-11-22 15:13:00,
2013-11-22 11:28:00,-999.9,-99.9,3.33,North,0,19.0,242.0,100,0.04,,,-99.99,,WeatherLink 5.4,2013-11-22 15:28:00,
2013-11-22 11:43:00,-999.9,-99.9,3.33,North,0,19.0,242.0,100,0.04,,,-99.99,,WeatherLink 5.4,2013-11-22 15:43:00,
2013-11-22 11:58:00,-999.9,-99.9,3.33,North,0,19.0,242.0,100,0.04,,,-99.99,,WeatherLink 5.4,2013-11-22 15:58:00,
2013-11-22 12:13:00,-999.9,-99.9,3.33,North,0,19.0,242.0,100,0.04,,,-99.99,,WeatherLink 5.4,2013-11-22 16:13:00,
2013-11-22 12:27:00,-999.9,-99.9,3.33,North,0,19.0,242.0,100,0.04,,,-99.99,,WeatherLink 5.4,2013-11-22 16:27:00,
2013-11-22 12:42:00,-999.9,-99.9,3.33,North,0,19.0,242.0,100,0.04,,,-99.99,,WeatherLink 5.4,2013-11-22 16:42:00,
2013-11-22 12:57:00,-999.9,-99.9,3.33,North,0,19.0,242.0,100,0.04,,,-99.99,,WeatherLink 5.4,2013-11-22 16:57:00,
2013-11-22 13:13:00,-999.9,-99.9,3.33,North,0,19.0,242.0,100,0.04,,,-99.99,,WeatherLink 5.4,2013-11-22 17:13:00,
2013-11-22 13:28:00,-999.9,-99.9,3.33,North,0,19.0,242.0,100,0.04,,,-99.99,,WeatherLink 5.4,2013-11-22 17:28:00,
2013-11-22 13:43:00,-999.9,-99.9,3.33,North,0,19.0,242.0,100,0.04,,,-99.99,,WeatherLink 5.4,2013-11-22 17:43:00,
2013-11-22 13:58:00,-999.9,-99.9,3.33,North,0,19.0,242.0,100,0.04,,,-99.99,,WeatherLink 5.4,2013-11-22 17:58:00,
2013-11-22 14:13:00,-999.9,-99.9,3.33,North,0,19.0,242.0,100,0.04,,,-99.99,,WeatherLink 5.4,2013-11-22 18:13:00,
2013-11-22 14:28:00,-999.9,-99.9,3.33,North,0,19.0,242.0,100,0.04,,,-99.99,,WeatherLink 5.4,2013-11-22 18:28:00,
2013-11-22 14:43:00,-999.9,-99.9,3.33,North,0,19.0,242.0,100,0.04,,,-99.99,,WeatherLink 5.4,2013-11-22 18:43:00,
2013-11-22 14:58:00,-999.9,-99.9,3.33,North,0,19.0,242.0,100,0.04,,,-99.99,,WeatherLink 5.4,2013-11-22 18:58:00,
2013-11-22 15:13:00,-999.9,-99.9,3.33,North,0,19.0,242.0,100,0.04,,,-99.99,,WeatherLink 5.4,2013-11-22 19:13:00,
2013-11-22 15:28:00,-999.9,-99.9,3.33,North,0,19.0,242.0,100,0.04,,,-99.99,,WeatherLink 5.4,2013-11-22 19:28:00,
2013-11-22 15:42:00,-999.9,-99.9,3.33,North,0,19.0,242.0,100,0.04,,,-99.99,,WeatherLink 5.4,2013-11-22 19:42:00,
2013-11-22 15:57:00,-999.9,-99.9,3.33,North,0,19.0,242.0,100,0.04,,,-99.99,,WeatherLink 5.4,2013-11-22 19:57:00,
2013-11-22 16:13:00,-999.9,-99.9,3.33,North,0,19.0,242.0,100,0.04,,,-99.99,,WeatherLink 5.4,2013-11-22 20:13:00,
2013-11-22 16:28:00,-999.9,-99.9,3.33,North,0,19.0,242.0,100,0.04,,,-99.99,,WeatherLink 5.4,2013-11-22 20:28:00,
2013-11-22 16:43:00,-999.9,-99.9,3.33,North,0,19.0,242.0,100,0.04,,,-99.99,,WeatherLink 5.4,2013-11-22 20:43:00,
2013-11-22 16:58:00,-999.9,-99.9,3.33,North,0,19.0,242.0,100,0.04,,,-99.99,,WeatherLink 5.4,2013-11-22 20:58:00,
2013-11-22 17:13:00,-999.9,-99.9,3.33,North,0,19.0,242.0,100,0.04,,,-99.99,,WeatherLink 5.4,2013-11-22 21:13:00,
2013-11-22 17:28:00,-999.9,-99.9,3.33,North,0,19.0,242.0,100,0.04,,,-99.99,,WeatherLink 5.4,2013-11-22 21:28:00,
2013-11-22 17:43:00,-999.9,-99.9,3.33,North,0,19.0,242.0,100,0.04,,,-99.99,,WeatherLink 5.4,2013-11-22 21:43:00,
2013-11-22 17:58:00,-999.9,-99.9,3.33,North,0,19.0,242.0,100,0.04,,,-99.99,,WeatherLink 5.4,2013-11-22 21:58:00,
2013-11-22 18:13:00,-999.9,-99.9,3.33,North,0,19.0,242.0,100,0.04,,,-99.99,,WeatherLink 5.4,2013-11-22 22:13:00,
2013-11-22 18:28:00,-999.9,-99.9,3.33,North,0,19.0,242.0,100,0.04,,,-99.99,,WeatherLink 5.4,2013-11-22 22:28:00,
2013-11-22 18:42:00,-999.9,-99.9,3.33,North,0,19.0,242.0,100,0.04,,,-99.99,,WeatherLink 5.4,2013-11-22 22:42:00,
2013-11-22 18:57:00,-999.9,-99.9,3.33,North,0,19.0,242.0,100,0.04,,,-99.99,,WeatherLink 5.4,2013-11-22 22:57:00,
2013-11-22 19:14:00,-999.9,-99.9,3.33,North,0,19.0,242.0,100,0.04,,,-99.99,,WeatherLink 5.4,2013-11-22 23:14:00,
2013-11-22 19:28:00,-999.9,-99.9,3.33,North,0,19.0,242.0,100,0.04,,,-99.99,,WeatherLink 5.4,2013-11-22 23:28:00,
2013-11-22 19:43:00,-999.9,-99.9,3.33,North,0,19.0,242.0,100,0.04,,,-99.99,,WeatherLink 5.4,2013-11-22 23:43:00,
2013-11-22 19:58:00,-999.9,-99.9,3.33,North,0,19.0,242.0,100,0.04,,,-99.99,,WeatherLink 5.4,2013-11-22 23:58:00,
2013-11-22 20:13:00,-999.9,-99.9,3.33,North,0,19.0,242.0,100,0.04,,,-99.99,,WeatherLink 5.4,2013-11-23 00:13:00,
2013-11-22 20:28:00,-999.9,-99.9,3.33,North,0,19.0,242.0,100,0.04,,,-99.99,,WeatherLink 5.4,2013-11-23 00:28:00,
2013-11-22 20:43:00,-999.9,-99.9,3.33,North,0,19.0,242.0,100,0.04,,,-99.99,,WeatherLink 5.4,2013-11-23 00:43:00,
2013-11-22 20:58:00,-999.9,-99.9,3.33,North,0,19.0,242.0,100,0.04,,,-99.99,,WeatherLink 5.4,2013-11-23 00:58:00,
2013-11-22 21:13:00,-999.9,-99.9,3.33,North,0,19.0,242.0,100,0.04,,,-99.99,,WeatherLink 5.4,2013-11-23 01:13:00,
2013-11-22 21:28:00,-999.9,-99.9,3.33,North,0,19.0,242.0,100,0.04,,,-99.99,,WeatherLink 5.4,2013-11-23 01:28:00,
2013-11-22 21:43:00,-999.9,-99.9,3.33,North,0,19.0,242.0,100,0.04,,,-99.99,,WeatherLink 5.4,2013-11-23 01:43:00,
2013-11-22 21:57:00,-999.9,-99.9,3.33,North,0,19.0,242.0,100,0.04,,,-99.99,,WeatherLink 5.4,2013-11-23 01:57:00,
2013-11-22 22:14:00,-999.9,-99.9,3.33,North,0,19.0,242.0,100,0.04,,,-99.99,,WeatherLink 5.4,2013-11-23 02:14:00,
2013-11-22 22:29:00,-999.9,-99.9,3.33,North,0,19.0,242.0,100,0.04,,,-99.99,,WeatherLink 5.4,2013-11-23 02:29:00,
2013-11-22 22:43:00,-999.9,-99.9,3.33,North,0,19.0,242.0,100,0.04,,,-99.99,,WeatherLink 5.4,2013-11-23 02:43:00,
2013-11-22 22:58:00,-999.9,-99.9,3.33,North,0,19.0,242.0,100,0.04,,,-99.99,,WeatherLink 5.4,2013-11-23 02:58:00,
2013-11-22 23:13:00,-999.9,-99.9,3.33,North,0,19.0,242.0,100,0.04,,,-99.99,,WeatherLink 5.4,2013-11-23 03:13:00,
2013-11-22 23:28:00,-999.9,-99.9,3.33,North,0,19.0,242.0,100,0.04,,,-99.99,,WeatherLink 5.4,2013-11-23 03:28:00,
2013-11-22 23:43:00,-999.9,-99.9,3.33,North,0,19.0,242.0,100,0.04,,,-99.99,,WeatherLink 5.4,2013-11-23 03:43:00,
2013-11-22 23:58:00,-999.9,-99.9,3.33,North,0,19.0,242.0,100,0.04,,,-99.99,,WeatherLink 5.4,2013-11-23 03:58:00,